Location: *
(58.7167°N, 26.1833°E)
Time: 23:28:24
(UTC+00:00)

Cosmos 1975 - Pass Details

Date: 25 August 2019
Orbit: 542 x 562 km, 82.5° (Epoch: 22 September)

Event Time Altitude Azimuth Distance (km) Brightness Sun altitude
Exits shadow 20:39:42 19° 216° (SW) 1,346 4.5 -17.9°
Maximum altitude 20:42:24 53° 288° (WNW) 679 3.5 -18.0°
Drops below altitude 10° 20:46:20 10° 7° (N) 1,827 6.4 -18.2°
Sets 20:48:33 0° 12° (NNE) 2,724 7.3 -18.4°
